Location: Peterborough
(44.3091°N, 78.3197°W)
Time: 13:03:42
(UTC-04:00)

Vanguard 1 - Pass Details

Date: 25 March 2023
Orbit: 649 x 3832 km, 34.2° (Epoch: 02 June)

Event Time Altitude Azimuth Distance (km) Brightness Sun altitude
Rises 20:13:27 0° 275° (W) 7,885 17.0 -8.2°
Reaches altitude 10° 20:19:26 10° 271° (W) 6,648 15.8 -9.3°
Maximum altitude 20:38:04 48° 206° (SSW) 3,176 12.7 -12.5°
Enters shadow 20:48:53 11° 137° (SE) 4,024 12.7 -14.4°
